Other Public Products
Issued by NWS Grand Forks, ND

Home | Current Version | Previous Version | Graphics & Text | Print | Product List | Glossary On
Versions: 1 2 3 4 5 6 7 8 9 10 11 12 13 14 15 16 17 18 19 20 21 22 23 24 25 26 27 28 29 30 31 32 33 34 35 36 37 38 39 40 41 42 43 44 45 46 47 48 49 50
347
FPUS83 KFGF 242331
OPUFGF
PRAIRIE TO PINES WEATHER ROUNDUP
NATIONAL WEATHER SERVICE EASTERN NORTH DAKOTA/GRAND FORKS ND
600 PM CDT SAT JUN 24 2017

 **SATELLITE DATA USED TO AUGMENT SKY COVER AT AUTOMATED STATIONS**
 *****  WEATHER ACROSS EASTERN NORTH DAKOTA  *****

CITY           SKY/WX    TMP DP  RH WIND       PRES   REMARKS
GRAND FORKS    DRIZZLE   53  50  89 NW16G25   30.11R
GRAND FORKS AF LGT RAIN  52  50  93 N20       30.13R
GRAND CITY NWS NOT AVBL
BUXTON           N/A     56  53  90 NW18G37     N/A
DEVILS LAKE    LGT RAIN  52  42  69 N17G23    30.19R
FARGO          CLOUDY    60  48  64 N15G24    30.09R
WAHPETON ARPT  CLOUDY    57  48  72 NW15      30.11R
$$

 *****  WEATHER ACROSS CENTRAL AND WESTERN NORTH DAKOTA  *****

CITY           SKY/WX    TMP DP  RH WIND       PRES   REMARKS
JAMESTOWN      CLOUDY    57  45  64 NW21G28   30.17R
BISMARCK       PTSUNNY   65  40  39 N17       30.23S
MINOT          PTSUNNY   61  41  47 N14G24    30.24S
MINOT AFB      FAIR      61  39  44 N14G24    30.23S
GARRISON         N/A     62  40  44 N20G25    30.24R
WILLISTON      PTSUNNY   68  34  28 N16       30.28S
DICKINSON      FAIR      65  29  25 N21G28    30.26S
HETTINGER      FAIR      68  31  25 N16G28    30.27S
$$

 *****  OTHER OBSERVATIONS NORTHEAST NORTH DAKOTA  *****

CITY           SKY/WX    TMP DP  RH WIND       PRES   REMARKS
WALHALLA       NOT AVBL
LANGDON        CLOUDY    54  45  71 N20G25    30.16S
CAVALIER       NOT AVBL
GRAFTON          N/A     54  46  76 NW23      30.14R
CANDO          NOT AVBL
FORT TOTTEN      N/A     56  46  68 N7        29.95S
ROLLA            N/A     55  43  62 NW23G29   30.20R
RUGBY          NOT AVBL
 ***** THE ABOVE OBSERVATIONS ARE NON NWS ARE NOT QUALITY
        CONTROLLED AND MAY MIS-REPORT RAIN FOR SNOW...
$$

 *****  OTHER OBSERVATIONS SOUTHEAST NORTH DAKOTA *****

CITY           SKY/WX    TMP DP  RH WIND       PRES   REMARKS
COOPERSTOWN    CLOUDY    55  41  58 N24G35    30.16R
VALLEY CITY    CLOUDY    57  45  62 N16G25    30.17R
OAKES          NOT AVBL
GWINNER        CLOUDY    59  46  63 NW17G26   30.14S
SHEYENNE NWR     N/A     57  50  77 N7        29.95S
BUFFALO          N/A     43  40  87 N20G32      N/A
WYNDMERE       NOT AVBL
 ***** THE ABOVE OBSERVATIONS ARE NON NWS ARE NOT QUALITY
       CONTROLLED AND MAY MIS-REPORT RAIN FOR SNOW...
$$

  *****  WEATHER ACROSS NORTHERN MINNESOTA  *****

CITY           SKY/WX    TMP DP  RH WIND       PRES   REMARKS
FLAG ISLAND    LGT RAIN  55  54  94 N13       30.01R
WARROAD        FAIR      59  54  82 W7        30.02R
ROSEAU         HVY RAIN  55  52  88 N13G20    30.03R
HALLOCK        LGT RAIN  52  50  93 N15G22    30.10R
THF RVR FALLS  CLOUDY    53  51  93 NW16G26   30.06R FOG
HALSTAD          N/A     55  50  83 NW14        N/A
FOSSTON        CLOUDY    52  48  87 W15G23    30.06R
BAUDETTE       CLOUDY    60  50  69 N13       29.99R
WASKISH        CLOUDY    63  48  59 NW9       29.99S
CROOKSTON      LGT RAIN  52  50  93 NW23G30   30.09R
$$
  *****  WEATHER ACROSS CENTRAL AND WEST MINNESOTA  *****

CITY           SKY/WX    TMP DP  RH WIND       PRES   REMARKS
BEMIDJI        CLOUDY    59  47  63 W10       30.01S
PARK RAPIDS    LGT RAIN  57  49  74 NW13      30.03S
WADENA         PTSUNNY   57  48  72 W13G18    30.05S
DETROIT LAKES  PTSUNNY   54  50  87 NW21G26   30.08R
MOORHEAD       PTSUNNY   57  48  72 NW16G23   30.10R
FERGUS FALLS   PTSUNNY   59  48  67 NW22      30.06F
ELBOW LAKE     CLOUDY    58  49  71 W17G23    30.10R
MORRIS MN      FAIR      64  43  45 NW20      30.08S
STAPLES        FAIR      61  46  59 W16G24    30.04R
WHEATON        CLOUDY    61  43  51 W18G24    30.12R
$$
  *****  WEATHER ELSEWHERE ACROSS MINNESOTA  *****

CITY           SKY/WX    TMP DP  RH WIND       PRES   REMARKS
DULUTH         PTSUNNY   59  48  67 NW10      29.96R
INTRNTL FALLS  CLOUDY    61  49  64 NW10      29.97R
ELY            CLOUDY    57  46  67 N6        29.94R
CLOQUET        FAIR      63  46  55 W10       29.97S
BRAINERD       PTSUNNY   61  44  53 W10       30.01F
HIBBING        LGT RAIN  57  50  77 W6        29.97S
ALEXANDRIA     CLOUDY    60  45  57 NW17      30.08S
SAINT CLOUD    FAIR      63  46  54 NW18G24   30.03S
MINNEAPOLIS    PTSUNNY   63  42  46 NW15      30.02S
$$

  *****  WEATHER ACROSS SOUTH DAKOTA  *****

CITY           SKY/WX    TMP DP  RH WIND       PRES   REMARKS
SIOUX FALLS    FAIR      68  43  40 NW20G29   30.13R
BROOKINGS      FAIR      65  41  41 NW17G25   30.13S
WATERTOWN      FAIR      63  41  44 NW17      30.13S
HURON          FAIR      69  40  34 N21G28    30.15S
SISSETON         N/A     63  43  48 NW17G29   30.11R
ABERDEEN       PTSUNNY   64  43  46 N23G32    30.17R
MITCHELL       FAIR      73  39  29 NW15G29   30.15R
PIERRE         FAIR      72  30  21 NW20G28   30.18R
MOBRIDGE       FAIR      68  38  33 N20G25    30.19R
RAPID CITY     FAIR      75  30  19 N18G30    30.25S
$$

  *****  SOME WEATHER IN NEARBY STATES *****

CITY           SKY/WX    TMP DP  RH WIND       PRES   REMARKS
GLASGOW MT     FAIR      74  31  20 MISG      30.27S
GREAT FALLS MT FAIR      70  36  28 E14       30.29S
CHEYENNE WY    CLOUDY    67  38  34 E15       30.33F
SCOTTSBLUFF NE FAIR      75  35  23 N3        30.26S
OMAHA NE       FAIR      80  36  20 W21G28    30.11F
DES MOINES IA  FAIR      79  37  22 W20       30.06F
DAVENPORT IA   FAIR      72  41  32 W16G26    30.05F
CHICAGO IL     FAIR      72  40  31 NW23G31   29.99S
EAU CLAIRE WI  LGT RAIN  56  48  74 W5        29.98F
LA CROSSE WI   LGT RAIN  59  50  72 VRB3      30.02F
$$

  *****  SOME NATIONAL WEATHER *****

CITY           SKY/WX    TMP DP  RH WIND       PRES   REMARKS
LA GUARDIA NY  FAIR      85  54  34 W13       29.79R
RALEIGH NC     LGT RAIN  73  72  96 S9        29.96R FOG
ATLANTA GA     PTSUNNY   81  75  82 SW6       30.00S
NEW ORLEANS LA LGT RAIN  78  75  90 N5        30.05F
OKLAHOMA CITY  PTSUNNY   84  50  30 NE12      30.14F
ALBUQUERQUE NM PTSUNNY   88  50  27 SW20G25   30.13F
SALT LAKE CITY FAIR      88  30  12 N7        30.15F
LOS ANGELES CA FAIR      70  59  68 W16       29.88F
BOISE ID       FAIR      87  27  11 NW9       30.12F
SEATTLE WA     FAIR      89  52  28 NW13      30.06F
$$

*** WEATHER ACROSS MANITOBA...SASKATCHEWAN AND ONTARIO ***
                ***ONTARIO***

CITY           SKY/WX    TMP DP  RH WIND       PRES   REMARKS
GERALDTON      PTSUNNY   66  43  42 E6        29.88S
THUNDER BAY    CLOUDY    63  52  67 N5        29.89R
SIOUX LOOKOUT  CLOUDY    55  52  88 N5        29.94S
TORONTO        PTSUNNY   72  52  49 W16       29.84R
BIG TROUT LK   PTSUNNY   57  36  44 N10G18    30.02S
PICKLE LAKE    PTSUNNY   57  43  58 N12       29.98R
DRYDEN         LGT RAIN  54  50  87 SE3       29.98S
KENORA         LGT RAIN  57  52  82 N10G17    30.01R
$$
                *** MANITOBA***

CITY           SKY/WX    TMP DP  RH WIND       PRES   REMARKS
BRANDON        PTSUNNY   57  45  62 NW15G21   30.20R
DAUPHIN        MOSUNNY   59  45  58 N10       30.20S
ISLAND LAKE    PTSUNNY   59  39  47 NW5       30.09S
PILOT MOUND      N/A     54  46  76 N14G20      N/A
THE PAS        MOSUNNY   57  41  54 NW3       30.20S
THOMPSON       LGT RAIN  59  41  51 N15G21    30.11S
WINNIPEG       CLOUDY    54  48  82 NW13      30.12R
LYNN LAKE      PTSUNNY   63  30  29 NW8G17    30.16S
CHURCHILL      MOSUNNY   61  32  33 VRB3      30.06F
GILLAM         MOSUNNY   64  39  39 NW6       30.05S
$$
                ***SASKATCHEWAN***

CITY           SKY/WX    TMP DP  RH WIND       PRES   REMARKS
ESTEVAN        PTSUNNY   64  37  36 N17       30.25F
KINDERSLEY     PTSUNNY   72  43  35 W13G20    30.25S
LLOYDMINSTER   CLOUDY    68  46  45 W14       30.22F THUNDER
PRINCE ALBERT  MOSUNNY   64  43  45 NE3       30.23R
REGINA         PTSUNNY   66  37  34 NW15      30.24S
YORKTON        MOSUNNY   59  43  55 N8        30.22F



USA.gov is the U.S. government's official web portal to all federal, state and local government web resources and services.